{"data":{"norad_id":52618,"intl_designator":"2022-052W","name":"STARLINK-3983","alt_names":[],"object_type":"PAYLOAD","status":"ACTIVE","operator":null,"country":"US","launch_date":"2022-05-14","launch_site_code":"AFETR","launch_vehicle":null,"mission":null,"orbit_class":"UNKNOWN","rcs_meters":null,"size_class":null,"mass_kg":null,"dimensions":null,"purposes":["comms"],"wikipedia_slug":null,"has_3d_model":false,"image_url":null,"decayed_at":null,"tle_current":{"epoch":"2026-09-20T02:07:44.918976Z","epoch_age_seconds":102013,"freshness":"FRESH","line1":"1 52618U 22052W   26263.08871434 -.00000350  00000+0  86679-6 0  9997","line2":"2 52618  53.1574 104.4628 0001201 107.9250 252.1884 15.35398478240494","mean_motion":15.35398478,"eccentricity":0.0001201,"inclination_deg":53.1574,"raan_deg":104.4628,"arg_perigee_deg":107.925,"mean_anomaly_deg":252.1884,"bstar":8.6679e-7,"rev_number":24049,"period_min":93.786728372672,"perigee_km":458.91593285339,"apogee_km":460.55839022699,"semimajor_km":6837.8741615402,"source":"CELESTRAK","updated_at":"2026-09-20T09:00:40.071279Z"}}}